Regional Weather Roundup
Issued by NWS

Home | Current Version | Previous Version | Text Only | Print | Product List | Glossary Off
Versions: 1 2 3 4 5 6 7 8 9 10 11 12 13 14 15 16 17 18 19 20 21 22 23 24 25 26 27 28 29 30 31 32 33 34 35 36 37 38 39 40 41 42 43 44 45 46 47 48 49 50

000
ASUS45 KCYS 210510
RWRWY

WYOMING REGIONAL WEATHER ROUNDUP
NATIONAL WEATHER SERVICE CHEYENNE WY
1100 PM MDT SAT SEP 20 2014

NOTE:  "FAIR" INDICATES FEW OR NO CLOUDS BELOW 12,000 FEET
WITH NO SIGNIFICANT WEATHER AND/OR OBSTRUCTIONS TO VISIBILITY.

WYZ001-210600-
YELLOWSTONE NATIONAL PARK

CITY           SKY/WX    TMP DP  RH WIND       PRES   REMARKS
LK YELLOWSTONE   N/A     39  35  86 W3        30.43R
W YELLOWSTONE  NOT AVBL

$$
WYZ002>013-054>058-071-098>099-210600-
NORTHERN WYOMING

CITY           SKY/WX    TMP DP  RH WIND       PRES   REMARKS
JACKSON        CLEAR     54  43  66 N14       30.30S
CODY             N/A    N/A N/A N/A MISG        N/A
GREYBULL       CLEAR     60  40  47 S5        30.24R
WORLAND        CLEAR     57  42  57 SE9       30.26R
SHERIDAN       CLEAR     46  41  82 CALM      30.30R
BUFFALO        CLEAR     50  40  68 W3        30.35S
GILLETTE       CLEAR     42  38  85 S5        30.31R
HULETT         FAIR      55  36  47 MISG      30.33
NEWCASTLE      FAIR      48  36  61 CALM      30.31

$$
WYZ014>020-022>026-101>103-210600-
CENTRAL WYOMING

CITY           SKY/WX    TMP DP  RH WIND       PRES   REMARKS
BIG PINEY      CLEAR     50  33  52 N10       30.34R
PINEDALE       CLEAR     45  34  65 NW7       30.35S
DUBOIS         FAIR      48  36  61 CALM      30.41R
LANDER         CLEAR     58  41  53 W9        30.31R
RIVERTON       CLOUDY    61  39  44 E13       30.32R
CASPER         CLEAR     52  36  54 NE10      30.35R
DOUGLAS        CLEAR     50  36  58 CALM      30.36R

$$
WYZ021-027>030-104>119-210600-
SOUTHERN WYOMING

CITY           SKY/WX    TMP DP  RH WIND       PRES   REMARKS
EVANSTON       CLEAR     60  28  29 E6        30.30S
KEMMERER       PTCLDY    55  32  41 N7        30.34R
FORT BRIDGER   FAIR      60  30  32 SE5       30.34R
ROCK SPRINGS   CLEAR     59  35  40 E16       30.31R
DIXON          FAIR      54  36  51 NE6       30.30S
RAWLINS        CLEAR     58  39  49 NE18      30.36R
SARATOGA       FAIR      55  43  62 S8        30.35S
LARAMIE        PTCLDY    55  38  52 E17       30.40F
CHEYENNE       MOCLDY    58  39  49 NE7       30.38F
TORRINGTON     CLEAR     53  39  59 CALM      30.30R
PINE BLUFFS    FAIR      50  41  71 CALM      30.36R

$$


USA.gov is the U.S. government's official web portal to all federal, state and local government web resources and services.